Temp
-17 -17 -17 -17 -17 -17 -17 -16 -16 -16 -16 -15 -15 -15 -14 -14 -13 -13 -13 -12 -11 -12 -11 -11 -11 -11 -11 -11 -11 -11 -10 -10 -10 -11 -11 -11 -11 -10 -10 -10 -11 -11 -12 -11 -10
-17 -17 -17 -17 -17 -17 -17 -17 -17 -16 -16 -16 -15 -15 -14 -14 -13 -13 -13 -12 -12 -12 -11 -11 -11 -11 -11 -11 -11 -11 -10 -10 -10 -11 -11 -11 -11 -10 -10 -11 -10 -10 -11 -11 -11
-17 -17 -17 -18 -17 -17 -17 -17 -17 -17 -16 -16 -16 -15 -15 -15 -13 -14 -13 -13 -12 -12 -12 -11 -11 -11 -11 -11 -11 -11 -10 -11 -11 -11 -10 -10 -10 -10 -10 -10 -11 -11 -11 -11 -11
-17 -17 -18 -18 -18 -17 -17 -17 -17 -17 -17 -17 -16 -16 -15 -15 -14 -14 -14 -13 -12 -12 -12 -12 -12 -11 -11 -11 -11 -11 -11 -11 -11 -11 -10 -10 -11 -10 -10 -10 -10 -10 -10 -10 -10
-18 -18 -18 -18 -18 -18 -17 -17 -17 -17 -17 -17 -17 -16 -16 -15 -15 -15 -14 -13 -13 -13 -13 -12 -12 -12 -11 -11 -11 -11 -11 -11 -11 -11 -10 -10 -10 -10 -10 -10 -11 -10 -10 -10 -10
-18 -18 -18 -18 -18 -18 -18 -17 -17 -17 -17 -17 -17 -17 -16 -15 -14 -15 -14 -14 -14 -13 -13 -13 -12 -12 -11 -11 -11 -11 -11 -11 -11 -11 -11 -10 -10 -10 -9 -11 -11 -10 -10 -10 -10
-17 -18 -18 -18 -18 -18 -18 -18 -17 -17 -17 -17 -18 -17 -17 -16 -15 -15 -15 -14 -14 -14 -14 -13 -13 -13 -12 -12 -12 -12 -12 -11 -11 -12 -11 -11 -10 -9 -10 -10 -10 -10 -10 -10 -10
-17 -16 -17 -18 -18 -18 -18 -18 -18 -17 -17 -17 -17 -17 -17 -16 -16 -16 -15 -15 -15 -14 -14 -14 -14 -13 -13 -12 -12 -13 -12 -12 -12 -12 -11 -10 -9 -10 -10 -10 -10 -10 -10 -10 -11
-20 -21 -21 -20 -20 -18 -18 -18 -18 -18 -17 -18 -17 -17 -17 -17 -16 -16 -16 -15 -15 -15 -15 -15 -14 -13 -13 -13 -13 -13 -12 -12 -12 -12 -11 -10 -9 -11 -10 -10 -10 -10 -10 -10 -10
-22 -23 -24 -23 -22 -20 -18 -18 -18 -18 -18 -18 -17 -17 -17 -17 -16 -16 -16 -16 -16 -15 -15 -15 -14 -14 -14 -14 -14 -14 -13 -13 -12 -11 -12 -11 -10 -10 -10 -10 -10 -10 -10 -10 -10
-23 -26 -27 -26 -24 -23 -20 -18 -18 -18 -19 -18 -17 -17 -17 -17 -17 -17 -17 -16 -16 -16 -15 -15 -14 -14 -15 -14 -15 -14 -13 -13 -13 -12 -12 -12 -10 -10 -11 -10 -11 -11 -10 -10 -11
-26 -27 -26 -26 -26 -25 -22 -20 -19 -19 -19 -19 -18 -18 -18 -18 -18 -17 -17 -16 -16 -16 -16 -15 -15 -16 -15 -15 -15 -14 -14 -14 -14 -13 -12 -12 -11 -11 -11 -11 -11 -11 -11 -11 -11
-27 -26 -26 -27 -26 -26 -24 -22 -20 -20 -19 -19 -19 -18 -18 -18 -18 -18 -17 -17 -17 -16 -16 -16 -16 -15 -15 -15 -15 -15 -14 -14 -14 -14 -13 -12 -11 -12 -11 -11 -12 -12 -12 -12 -12
-26 -27 -27 -26 -26 -26 -25 -23 -22 -20 -20 -19 -19 -18 -18 -18 -18 -18 -17 -17 -17 -16 -16 -16 -16 -16 -15 -15 -15 -15 -14 -14 -14 -14 -14 -13 -12 -12 -12 -12 -12 -12 -13 -12 -12
-26 -27 -27 -26 -26 -27 -25 -24 -21 -21 -21 -19 -19 -19 -19 -19 -18 -18 -17 -17 -17 -17 -16 -16 -16 -16 -16 -16 -15 -15 -15 -14 -14 -14 -14 -13 -13 -11 -12 -12 -12 -12 -12 -12 -12
-26 -26 -26 -26 -26 -26 -25 -23 -22 -21 -20 -19 -19 -18 -18 -18 -18 -18 -17 -17 -17 -16 -16 -16 -16 -16 -16 -15 -15 -15 -15 -14 -14 -14 -13 -13 -13 -11 -11 -12 -12 -12 -12 -12 -12
-26 -26 -26 -26 -26 -25 -25 -23 -23 -21 -20 -19 -18 -18 -18 -18 -18 -17 -17 -17 -17 -16 -16 -16 -16 -16 -15 -15 -15 -15 -15 -14 -14 -13 -13 -13 -12 -11 -12 -13 -13 -13 -14 -14 -14
-26 -26 -26 -26 -26 -24 -24 -23 -22 -21 -19 -19 -19 -19 -18 -18 -18 -18 -17 -17 -17 -16 -16 -16 -16 -16 -15 -15 -15 -15 -14 -15 -14 -14 -13 -13 -12 -12 -13 -12 -13 -13 -14 -15 -16
-26 -26 -26 -26 -26 -24 -23 -23 -21 -20 -20 -19 -19 -18 -18 -18 -18 -17 -17 -17 -17 -16 -16 -16 -15 -15 -15 -15 -15 -15 -15 -15 -15 -15 -14 -13 -13 -14 -14 -15 -14 -14 -15 -15 -15
-26 -26 -26 -26 -25 -23 -23 -22 -21 -20 -19 -19 -19 -18 -18 -18 -18 -17 -17 -17 -17 -17 -16 -16 -16 -15 -15 -16 -15 -15 -15 -15 -15 -15 -14 -13 -13 -13 -15 -16 -15 -16 -16 -16 -17
-26 -26 -26 -25 -22 -23 -22 -21 -21 -20 -19 -19 -19 -18 -18 -18 -18 -17 -17 -17 -17 -16 -16 -16 -16 -16 -16 -16 -15 -15 -16 -16 -15 -15 -15 -13 -13 -15 -16 -17 -17 -17 -18 -18 -20
-25 -25 -24 -23 -23 -22 -22 -21 -21 -20 -19 -20 -19 -18 -18 -19 -18 -18 -17 -17 -17 -16 -16 -16 -16 -16 -16 -16 -15 -16 -16 -16 -15 -16 -14 -14 -12 -15 -17 -17 -17 -18 -18 -19 -20
-25 -24 -24 -22 -22 -23 -22 -21 -21 -20 -20 -20 -19 -18 -18 -18 -18 -18 -17 -17 -17 -17 -16 -17 -16 -16 -16 -16 -16 -16 -16 -15 -16 -15 -14 -15 -15 -16 -17 -18 -18 -19 -19 -20 -21
-24 -23 -22 -22 -22 -22 -21 -20 -20 -20 -20 -20 -19 -19 -18 -18 -18 -18 -17 -17 -17 -17 -17 -16 -16 -16 -16 -16 -16 -16 -16 -16 -15 -14 -14 -15 -13 -16 -16 -16 -18 -19 -19 -20 -21
-23 -23 -22 -22 -22 -21 -21 -20 -20 -20 -20 -19 -19 -19 -19 -19 -18 -18 -18 -18 -17 -17 -16 -16 -16 -16 -17 -16 -15 -15 -15 -15 -15 -15 -14 -15 -15 -15 -16 -16 -17 -18 -19 -21 -21
-22 -22 -21 -21 -21 -21 -21 -20 -20 -20 -20 -19 -19 -19 -19 -19 -18 -18 -18 -17 -17 -17 -17 -16 -17 -16 -16 -16 -16 -16 -16 -16 -15 -15 -15 -15 -15 -16 -16 -17 -17 -18 -18 -20 -20
-21 -21 -20 -20 -20 -20 -21 -20 -20 -20 -20 -19 -19 -18 -18 -18 -18 -18 -18 -17 -17 -17 -17 -17 -16 -16 -16 -16 -16 -16 -16 -16 -15 -15 -15 -15 -15 -16 -16 -17 -17 -18 -18 -19 -20
Height
5675 5673 5672 5671 5670 5669 5669 5670 5672 5675 5677 5681 5685 5690 5695 5701 5706 5713 5719 5723 5727 5735 5738 5743 5748 5753 5756 5760 5763 5766 5768 5772 5780 5783 5789 5789 5785 5781 5790 5790 5793 5798 5802 5797 5799
5668 5666 5664 5662 5661 5661 5661 5662 5665 5666 5669 5673 5676 5680 5685 5690 5696 5704 5708 5714 5718 5725 5730 5735 5739 5744 5749 5753 5755 5759 5762 5767 5773 5776 5778 5778 5777 5777 5784 5785 5789 5792 5794 5795 5796
5659 5656 5655 5654 5652 5653 5653 5654 5655 5658 5660 5664 5667 5671 5676 5681 5687 5694 5699 5704 5710 5716 5721 5726 5731 5736 5741 5745 5749 5753 5757 5762 5765 5767 5770 5773 5773 5776 5776 5778 5785 5786 5789 5788 5791
5648 5646 5644 5644 5644 5644 5645 5645 5647 5649 5652 5656 5658 5662 5667 5673 5679 5686 5689 5695 5701 5706 5713 5717 5722 5728 5732 5737 5741 5745 5748 5753 5757 5758 5764 5767 5767 5766 5768 5775 5776 5778 5780 5780 5787
5636 5633 5631 5631 5631 5632 5634 5636 5637 5640 5643 5646 5649 5654 5659 5666 5671 5678 5682 5688 5693 5698 5705 5709 5714 5719 5724 5727 5732 5736 5740 5746 5747 5750 5758 5760 5762 5763 5763 5765 5772 5773 5775 5776 5781
5622 5619 5617 5615 5617 5618 5621 5624 5627 5630 5633 5635 5639 5646 5650 5658 5665 5669 5675 5679 5685 5690 5695 5701 5705 5711 5715 5718 5724 5727 5733 5738 5741 5745 5750 5753 5756 5755 5758 5764 5763 5764 5767 5771 5773
5608 5604 5600 5598 5598 5602 5606 5610 5616 5619 5623 5627 5630 5636 5643 5650 5657 5661 5667 5672 5677 5682 5687 5693 5698 5702 5707 5711 5716 5721 5728 5730 5734 5737 5740 5744 5748 5750 5752 5754 5756 5758 5761 5764 5766
5577 5572 5571 5575 5578 5581 5587 5594 5602 5609 5612 5617 5621 5627 5635 5641 5648 5653 5660 5665 5670 5674 5680 5684 5689 5694 5699 5706 5709 5715 5719 5723 5727 5729 5732 5736 5744 5745 5744 5747 5750 5752 5753 5756 5760
5540 5534 5533 5534 5547 5556 5565 5576 5587 5596 5602 5607 5613 5620 5626 5635 5641 5646 5652 5658 5662 5668 5673 5677 5682 5688 5693 5698 5702 5706 5712 5715 5717 5722 5725 5729 5734 5736 5737 5741 5744 5745 5747 5749 5752
5514 5508 5506 5508 5511 5524 5540 5556 5571 5583 5590 5595 5604 5613 5622 5629 5635 5640 5646 5652 5657 5661 5667 5670 5675 5681 5686 5691 5697 5700 5703 5705 5709 5713 5718 5721 5726 5729 5732 5734 5737 5739 5741 5742 5745
5501 5498 5497 5496 5497 5501 5515 5536 5554 5570 5580 5588 5600 5605 5616 5624 5628 5635 5641 5647 5651 5655 5660 5664 5670 5676 5681 5685 5689 5692 5697 5701 5703 5706 5710 5714 5718 5721 5724 5727 5731 5732 5733 5734 5736
5492 5494 5494 5492 5490 5491 5498 5517 5536 5556 5569 5580 5591 5598 5608 5615 5622 5629 5636 5643 5646 5650 5655 5660 5665 5671 5675 5679 5684 5688 5692 5695 5697 5698 5702 5707 5712 5714 5716 5720 5721 5724 5726 5728 5729
5490 5492 5492 5489 5488 5487 5490 5505 5526 5545 5560 5571 5584 5592 5602 5610 5617 5624 5630 5636 5641 5645 5651 5655 5661 5665 5670 5675 5679 5683 5686 5688 5692 5694 5696 5697 5705 5706 5710 5713 5715 5716 5717 5718 5719
5489 5489 5488 5487 5487 5485 5488 5501 5521 5539 5552 5567 5576 5586 5596 5604 5612 5619 5625 5632 5637 5642 5647 5651 5657 5662 5666 5671 5675 5678 5681 5685 5686 5688 5690 5693 5694 5702 5703 5705 5706 5707 5706 5705 5705
5489 5487 5485 5483 5484 5484 5487 5500 5521 5536 5550 5563 5572 5582 5591 5600 5609 5615 5621 5628 5634 5639 5645 5651 5654 5659 5664 5668 5671 5675 5678 5680 5681 5682 5684 5687 5687 5698 5698 5699 5695 5692 5690 5691 5691
5488 5485 5482 5480 5478 5480 5486 5497 5516 5535 5546 5555 5566 5578 5588 5596 5605 5612 5619 5626 5632 5637 5641 5647 5653 5658 5661 5664 5668 5671 5673 5674 5675 5676 5677 5678 5679 5691 5685 5682 5679 5675 5672 5669 5673
5488 5482 5477 5475 5475 5479 5486 5504 5518 5530 5542 5554 5565 5578 5586 5595 5603 5609 5618 5625 5630 5636 5640 5645 5651 5655 5658 5661 5664 5666 5668 5667 5668 5669 5671 5666 5669 5678 5671 5667 5663 5660 5658 5651 5650
5486 5481 5475 5472 5474 5482 5491 5510 5521 5535 5543 5553 5566 5577 5584 5592 5600 5608 5615 5621 5627 5632 5638 5642 5648 5651 5654 5657 5660 5661 5662 5661 5660 5660 5661 5658 5660 5659 5657 5652 5647 5642 5643 5641 5635
5482 5477 5474 5473 5476 5489 5506 5517 5527 5536 5545 5556 5565 5574 5582 5590 5600 5605 5613 5620 5626 5631 5636 5639 5644 5647 5650 5652 5655 5657 5655 5655 5654 5653 5648 5647 5649 5647 5643 5642 5639 5629 5627 5625 5619
5482 5476 5475 5476 5483 5500 5510 5519 5527 5538 5547 5558 5568 5575 5583 5591 5598 5605 5612 5619 5623 5628 5632 5637 5640 5642 5646 5648 5648 5648 5650 5649 5647 5644 5641 5637 5634 5633 5629 5625 5621 5613 5608 5605 5600
5483 5479 5478 5482 5495 5506 5515 5523 5533 5542 5552 5560 5567 5575 5583 5591 5598 5604 5610 5616 5621 5626 5630 5633 5636 5641 5642 5642 5643 5644 5644 5643 5640 5638 5632 5627 5623 5622 5618 5610 5606 5602 5595 5592 5584
5488 5488 5489 5494 5505 5511 5522 5531 5540 5547 5554 5562 5569 5576 5581 5588 5596 5602 5608 5614 5619 5623 5627 5630 5633 5636 5636 5637 5638 5639 5640 5636 5633 5631 5624 5622 5610 5614 5605 5599 5592 5589 5583 5576 5573
5494 5496 5500 5508 5516 5526 5533 5538 5547 5553 5559 5566 5572 5578 5583 5588 5596 5601 5607 5612 5617 5620 5625 5628 5630 5631 5632 5633 5634 5635 5632 5630 5626 5625 5623 5615 5611 5605 5596 5587 5581 5577 5571 5566 5561
5505 5510 5517 5524 5530 5535 5542 5546 5554 5560 5564 5569 5574 5579 5584 5590 5595 5601 5606 5611 5615 5619 5622 5624 5627 5627 5628 5628 5630 5630 5628 5625 5621 5617 5612 5611 5597 5595 5586 5576 5571 5564 5561 5556 5553
5524 5527 5531 5533 5538 5543 5547 5554 5560 5564 5568 5573 5576 5581 5585 5590 5595 5601 5606 5610 5614 5617 5620 5622 5623 5624 5625 5625 5625 5624 5624 5621 5616 5613 5608 5605 5596 5588 5578 5565 5556 5552 5548 5544 5543
5538 5543 5544 5545 5547 5550 5555 5560 5563 5568 5572 5575 5579 5582 5587 5592 5596 5601 5605 5609 5613 5615 5617 5619 5620 5622 5621 5622 5622 5622 5619 5618 5615 5612 5607 5598 5593 5583 5572 5559 5548 5542 5537 5535 5536
5553 5554 5555 5554 5556 5558 5560 5564 5568 5572 5575 5577 5580 5583 5588 5592 5596 5600 5604 5607 5610 5612 5614 5616 5617 5618 5618 5619 5619 5619 5616 5614 5612 5608 5602 5596 5590 5581 5572 5559 5547 5537 5533 5533 5533
Wind_Speed
27 29 28 28 30 27 30 30 33 34 35 43 48 49 50 48 48 46 44 45 44 42 44 42 42 42 42 40 40 41 40 40 33 29 25 31 37 41 29 34 32 28 22 34 34
34 31 31 32 29 31 31 32 32 32 33 36 41 45 49 50 49 47 47 46 45 44 44 44 43 44 43 43 44 42 40 37 34 30 32 36 40 41 31 38 35 32 32 33 31
40 39 36 33 35 34 34 34 33 33 32 36 38 40 42 45 47 47 48 47 47 46 47 45 45 45 43 44 44 42 40 37 33 33 36 35 38 35 36 40 35 36 35 36 36
43 44 43 41 37 37 37 37 35 36 34 34 37 39 40 42 43 41 44 45 47 48 48 46 45 45 45 44 42 41 42 40 34 36 34 33 36 38 38 36 38 40 38 38 32
45 47 48 46 46 42 39 39 39 37 38 36 34 38 39 39 41 38 41 42 43 46 46 46 45 45 45 43 42 42 45 41 38 37 32 35 37 37 36 38 37 36 37 35 25
47 47 50 52 50 49 45 42 41 40 37 40 36 37 39 39 39 37 38 41 43 45 46 47 46 45 46 45 42 44 44 43 41 34 34 36 37 39 38 34 36 38 36 33 31
52 51 50 53 54 53 51 48 44 43 41 36 40 39 37 40 37 36 35 37 39 42 45 47 45 45 46 44 43 43 42 44 43 35 35 36 38 37 37 38 36 35 36 30 32
74 72 68 61 59 59 57 53 49 45 44 39 38 41 37 38 37 35 35 36 38 39 41 44 44 46 46 45 44 42 44 43 41 39 38 38 34 33 37 36 33 32 33 31 29
74 71 72 74 68 64 64 58 53 47 44 40 40 37 39 39 35 34 34 35 35 36 38 38 42 43 43 43 43 42 42 42 43 41 40 39 36 35 37 34 30 31 33 30 27
51 45 44 47 53 54 63 63 56 50 45 45 41 37 36 37 37 35 35 33 32 33 34 37 38 40 41 40 37 38 41 43 42 44 41 42 38 37 36 35 33 32 33 31 29
37 21 14 18 25 29 45 60 57 51 39 44 39 38 34 34 36 35 34 31 31 31 33 34 35 34 30 36 36 40 41 40 39 40 41 40 41 39 38 37 33 35 35 36 34
17 6 9 15 16 24 39 50 55 52 48 43 38 39 35 36 35 35 33 30 29 28 30 31 30 28 32 34 35 37 37 36 35 38 42 39 40 40 39 38 38 37 38 38 36
6 5 11 15 20 13 38 48 55 57 50 43 39 37 35 37 36 34 32 29 27 26 26 28 28 29 29 30 31 32 34 33 34 34 35 39 40 38 39 37 36 38 39 40 40
1 10 15 13 11 22 28 46 58 56 55 50 45 40 35 37 35 35 32 30 26 25 24 25 24 25 25 25 26 27 29 27 26 28 31 33 41 35 37 38 42 43 45 48 50
6 13 14 15 18 16 29 54 61 38 46 48 44 39 36 39 35 34 32 28 26 23 21 21 21 22 20 21 22 22 23 24 25 28 31 32 39 40 40 43 49 53 56 58 59
15 18 18 17 16 12 35 66 50 37 36 48 47 40 36 36 35 34 31 28 25 24 21 21 19 18 19 19 20 21 23 25 28 31 35 39 43 39 46 51 54 59 63 66 66
26 29 20 14 10 18 40 52 36 38 35 46 41 35 34 33 33 33 30 27 26 22 21 19 18 19 20 20 20 22 24 29 32 34 37 43 47 43 47 49 53 50 49 55 59
19 27 17 9 8 32 44 40 37 38 23 43 40 36 33 33 33 33 31 29 27 24 21 21 21 20 20 20 22 24 28 30 35 38 41 45 46 46 45 42 45 52 54 53 57
27 15 10 3 18 42 47 36 27 24 27 30 38 34 33 33 30 32 31 28 27 23 21 21 20 19 19 22 24 23 27 30 34 37 44 46 42 41 46 43 43 54 56 58 63
20 18 5 8 27 63 40 30 24 27 32 29 27 30 28 32 27 29 28 27 25 22 23 21 20 21 21 22 25 27 27 30 34 39 40 42 42 42 41 43 47 51 55 57 62
16 14 8 23 55 54 37 32 31 23 28 30 26 21 24 29 25 24 26 25 24 23 22 21 22 20 19 22 24 26 28 30 34 38 40 39 46 49 44 44 47 44 49 50 52
21 13 26 32 47 42 38 35 32 28 29 25 28 24 28 32 28 26 24 24 23 23 23 23 20 17 21 22 25 26 25 30 32 33 39 42 46 37 39 44 49 39 41 42 43
16 18 27 38 42 27 26 36 31 28 22 18 24 27 24 27 29 26 23 23 22 22 20 17 17 19 21 25 24 22 25 24 31 34 30 37 36 34 42 49 46 33 33 36 40
26 36 43 39 31 24 27 31 27 22 22 23 24 26 24 23 25 27 25 22 20 17 16 18 18 20 23 22 20 21 23 28 28 29 34 29 36 34 38 44 38 30 28 29 33
31 41 33 32 28 24 33 28 25 19 19 21 21 26 23 22 21 21 21 18 16 16 16 18 18 22 19 20 20 22 25 23 25 27 30 25 30 33 38 42 43 33 27 28 25
38 29 30 27 29 25 22 24 20 13 16 16 18 21 23 21 19 18 16 16 15 16 15 16 18 12 16 16 16 16 18 18 18 20 23 27 27 33 37 39 42 39 24 23 18
20 23 25 29 25 23 19 15 13 12 12 11 14 18 19 20 20 18 14 15 15 16 15 14 10 11 16 11 10 10 13 11 13 17 25 27 30 30 30 30 27 28 28 10 9
Wind_Direction
279 277 271 267 263 257 253 251 243 245 243 237 234 235 234 232 232 231 232 229 229 228 231 232 235 237 237 237 238 240 244 246 252 257 256 245 247 254 244 248 252 252 247 254 267
279 274 274 272 265 261 254 252 247 243 243 241 237 235 234 233 232 230 231 232 231 228 230 232 233 235 239 240 241 242 245 248 248 253 246 239 241 249 245 248 247 248 244 254 259
280 275 270 268 268 259 259 252 252 246 243 240 238 236 234 232 230 230 231 230 231 232 231 230 233 236 238 241 243 241 243 244 243 245 249 247 246 252 249 249 247 251 249 250 249
282 277 273 267 262 261 254 254 247 246 243 240 236 234 234 231 230 228 230 229 231 231 232 232 232 235 236 238 241 238 240 241 239 245 252 248 244 245 245 251 247 248 250 254 255
283 277 273 268 265 258 255 252 251 242 244 241 237 234 231 232 230 230 231 230 231 232 233 232 232 233 233 234 236 235 237 238 239 242 245 246 245 249 247 244 250 254 254 256 252
287 278 271 267 262 260 254 248 246 246 241 243 237 236 232 230 231 230 228 231 232 232 231 231 230 232 233 232 233 235 236 239 239 242 247 246 246 246 247 254 248 251 252 252 251
289 281 270 265 261 255 253 248 243 241 243 238 238 238 233 231 228 230 229 228 230 229 231 230 231 230 233 231 233 236 237 239 242 238 242 243 243 246 246 246 248 251 253 248 248
296 284 272 258 254 252 247 244 241 237 238 237 234 236 235 234 228 227 230 228 230 228 230 230 228 231 232 232 234 236 238 240 241 239 238 240 240 240 244 243 245 249 251 253 251
291 285 279 272 257 247 242 238 236 235 234 235 233 231 229 229 228 228 229 228 228 228 229 231 229 231 231 232 234 235 238 241 241 239 237 238 237 234 242 243 241 245 250 252 253
298 292 284 275 269 255 235 232 228 229 230 232 229 228 225 223 226 227 229 227 227 227 228 229 229 230 233 234 237 239 238 239 239 241 237 236 234 237 241 244 241 244 250 254 255
302 297 320 305 274 249 231 222 222 219 203 226 226 224 224 221 220 222 224 225 226 226 228 230 231 231 234 233 234 236 240 242 245 243 242 238 235 235 239 244 242 246 247 251 253
283 257 335 353 352 228 211 206 208 201 207 214 219 217 218 217 214 216 220 222 224 227 227 230 233 229 230 234 237 242 243 243 243 246 244 243 239 240 240 242 246 244 249 254 253
254 259 333 332 329 305 211 193 193 185 195 201 208 214 213 214 211 211 214 217 220 221 222 225 226 227 231 234 237 239 243 242 244 246 248 247 240 244 244 246 251 252 251 251 254
145 260 320 320 325 326 206 183 176 180 199 200 205 209 213 210 208 209 210 212 214 216 215 219 220 224 225 231 233 235 239 242 243 246 249 252 248 242 251 253 259 258 259 259 258
334 334 329 299 307 274 192 173 163 181 192 198 203 207 211 207 204 207 207 208 209 208 208 208 209 211 213 218 224 232 238 247 255 260 260 264 268 249 258 261 261 265 265 262 260
352 339 317 293 288 229 185 175 167 177 184 195 194 202 207 209 202 205 206 207 203 205 201 200 197 208 217 222 233 242 252 260 265 269 270 271 272 264 271 271 275 274 271 268 266
329 328 327 304 261 181 181 153 163 177 183 200 202 199 205 204 204 203 202 205 202 204 205 206 204 216 225 236 245 252 259 267 270 271 274 278 276 275 280 284 281 281 280 281 280
338 328 334 306 202 168 179 166 161 165 166 189 191 196 204 203 201 202 202 203 202 205 205 214 216 222 237 242 249 258 265 272 274 277 278 283 284 287 285 280 280 282 288 287 283
336 340 333 262 159 158 144 142 145 132 175 183 190 200 197 196 199 201 201 203 207 210 216 221 225 231 240 250 258 264 270 273 280 284 285 289 291 286 287 292 289 285 287 288 290
341 359 115 174 149 151 135 128 136 139 162 172 183 192 193 194 195 198 201 204 207 209 217 221 231 240 246 259 264 269 274 279 282 287 290 289 294 296 303 306 296 300 299 296 292
4 20 142 140 153 137 118 130 145 141 157 162 162 175 189 192 189 191 197 200 205 209 219 226 237 245 257 258 267 272 276 282 285 293 295 296 298 308 312 298 296 298 297 297 288
16 55 138 151 153 127 115 125 148 146 140 148 169 166 177 189 193 195 196 200 206 214 222 234 246 250 253 262 269 270 276 282 291 295 294 304 306 326 301 295 299 298 298 296 285
50 111 129 143 142 126 131 130 151 166 160 167 171 172 170 185 192 192 196 206 214 222 230 238 244 250 256 259 265 277 287 291 288 292 314 312 324 313 308 296 296 298 295 293 276
92 124 128 121 125 123 136 133 147 152 167 169 175 171 176 177 184 196 205 210 216 221 224 233 243 250 258 262 269 276 278 286 299 316 317 339 331 331 312 308 293 289 293 289 284
115 129 116 120 115 125 132 131 144 163 166 177 178 176 178 177 180 187 193 203 207 220 229 239 245 255 255 268 284 280 282 308 321 321 322 336 334 331 330 322 304 293 288 283 281
131 124 124 119 122 123 123 145 146 163 170 178 184 190 194 190 191 197 205 213 220 228 242 246 257 242 261 277 276 276 309 312 308 319 334 342 342 335 338 333 324 298 308 287 277
123 123 131 124 126 128 131 132 146 163 188 192 196 197 199 207 211 214 219 224 231 240 244 257 239 257 264 264 287 305 316 319 324 337 343 347 349 350 356 345 354 341 304 332 269